Home > Weather > Zeitz > Past weeks

Flag for Germany Weather for the Past 2 Weeks in Zeitz, Saxony-Anhalt, Germany

Now
43 °F

Partly sunny.


Feels Like: 35 °F
Forecast: 35 / 42 °F
Wind: 17 mph from Southwest

Location: Leipzig-Schkeuditz

Current Time: Feb 10, 2016 at 2:30:15 PM

Latest Report: Feb 10, 2016 at 1:50 PM


Visibility: N/A

Pressure: 29.30 "Hg

Humidity: 66%

Dew point: 32 °F

Location of ZeitzLocation

Historic Weather in Zeitz — Graph

°F

Zeitz Temperature Yesterday

Maximum temperature yesterday: 48 °F (at 4:50 PM)
Minimum temperature yesterday: 41 °F (at 11:50 PM)
Average temperature yesterday: 46 °F

High & Low Weather Summary for the Past Weeks

 TemperatureHumidityPressure
High54 °F (Jan 26, 1:20 PM)100% (Feb 1, 2:50 AM)30.30 "Hg (Feb 1, 2:50 AM)
Low34 °F (Jan 28, 10:20 PM)53% (Feb 3, 3:50 PM)29.00 "Hg (Feb 9, 8:20 PM)
Average44 °F77%29.87 "Hg
* Reported Jan 26 1:20 PM — Feb 10 1:20 PM, Zeitz, Weather by CustomWeather, © 2016

Note: Actual official high and low records may vary slightly from our data, if they occured in-between our weather recording intervals... More about our weather records

Advertising

Zeitz Weather History for the Previous 24 Hours

 ConditionsComfort  
Time TempWeatherWind HumidityBarometerVisibility
1:20 PM
Wed, Feb 10
43 °FPartly sunny.20 mph61%29.30 "HgN/A
12:50 PM43 °FPartly sunny.18 mph61%29.30 "HgN/A
12:20 PM43 °FPartly sunny.18 mph61%29.33 "HgN/A
11:50 AM43 °FBroken clouds.18 mph66%29.33 "HgN/A
11:20 AM41 °FScattered clouds.17 mph66%29.33 "HgN/A
10:50 AM41 °FSunny.14 mph70%29.33 "Hg10 mi
10:20 AM39 °FBroken clouds.14 mph70%29.33 "HgN/A
9:50 AM39 °FSunny.17 mph70%29.33 "Hg10 mi
9:20 AM39 °FSunny.14 mph70%29.33 "Hg10 mi
8:50 AM37 °FSunny.10 mph75%29.33 "Hg10 mi
8:20 AM37 °FPartly sunny.13 mph75%29.30 "HgN/A
7:50 AM37 °FBroken clouds.10 mph75%29.30 "HgN/A
7:20 AM37 °FOvercast.15 mph81%29.30 "HgN/A
6:50 AM37 °FClear.14 mph81%29.27 "Hg10 mi
6:20 AM37 °FClear.12 mph75%29.27 "Hg10 mi
5:50 AM37 °FPartly cloudy.9 mph81%29.27 "HgN/A
5:20 AM37 °FPartly cloudy.13 mph75%29.27 "HgN/A
4:50 AM37 °FClear.12 mph81%29.27 "Hg10 mi
4:20 AM37 °FPassing clouds.9 mph81%29.24 "HgN/A
3:50 AM39 °FPassing clouds.20 mph75%29.24 "HgN/A
3:20 AM39 °FPassing clouds.15 mph75%29.24 "HgN/A
2:20 AM41 °FPassing clouds.21 mph76%29.21 "HgN/A
1:20 AM41 °FPassing clouds.24 mph76%29.18 "HgN/A
12:20 AM41 °FPassing clouds.26 mph81%29.15 "HgN/A
11:50 PM
Tue, Feb 9
41 °FClear.29 mph76%29.09 "Hg10 mi
11:20 PM43 °FSprinkles. Partly cloudy.36 mph81%29.06 "HgN/A
10:20 PM48 °FPassing clouds.25 mph71%29.00 "HgN/A
9:50 PM48 °FPassing clouds.23 mph76%29.00 "HgN/A
9:20 PM48 °FPartly cloudy.21 mph82%29.00 "HgN/A
8:50 PM48 °FPassing clouds.18 mph82%29.00 "HgN/A
8:20 PM46 °FRain showers. Partly cloudy.16 mph93%29.00 "Hg4 mi
7:50 PM48 °FSprinkles. Passing clouds.20 mph82%29.03 "HgN/A
7:20 PM48 °FPassing clouds.25 mph76%29.03 "HgN/A
6:50 PM48 °FMostly cloudy.23 mph76%29.03 "HgN/A
6:20 PM48 °FLight rain. Mostly cloudy.21 mph82%29.06 "HgN/A
5:50 PM48 °FMostly cloudy.22 mph76%29.06 "HgN/A
4:50 PM48 °FBroken clouds.22 mph76%29.12 "HgN/A
4:20 PM46 °FBroken clouds.20 mph82%29.12 "HgN/A
3:20 PM46 °FMostly cloudy.17 mph82%29.21 "HgN/A
2:50 PM46 °FLight rain. Mostly cloudy.18 mph82%29.24 "HgN/A
2:20 PM46 °FLight rain. Partly sunny.15 mph76%29.27 "HgN/A
Weather by CustomWeather, © 2016

See weather overviewHow to use our weather pages